| time (UTC) | temp F | wind direction | speed MPH | gust MPH | rain 1hr in | rain 24hr in | rain mn in | humidity % | barometer mb |
| 20260904003026 | 70 | 13 | 1.0 | 3.0 | 0.00 | 0.41 | 0.41 | 93 | 1012.9 |
| 20260904002535 | 71 | 46 | 1.0 | 3.0 | 0.00 | 0.41 | 0.41 | 93 | 1012.8 |
| 20260904002111 | 71 | 28 | 1.0 | 3.0 | 0.00 | 0.41 | 0.41 | 93 | 1012.7 |
| 20260904001540 | 71 | 46 | 1.0 | 2.0 | 0.00 | 0.41 | 0.41 | 93 | 1012.6 |
| 20260904001035 | 71 | 1 | 1.0 | 2.0 | 0.00 | 0.41 | 0.41 | 93 | 1012.6 |
| 20260904000522 | 71 | 1 | 1.0 | 2.0 | 0.00 | 0.41 | 0.41 | 93 | 1012.5 |
| 20260904000039 | 71 | 28 | 0.0 | 2.0 | 0.00 | 0.41 | 0.41 | 93 | 1012.5 |
| 20260903235527 | 71 | 63 | 0.0 | 2.0 | 0.00 | 0.41 | 0.41 | 93 | 1012.6 |
| 20260903235039 | 72 | 314 | 0.0 | 2.0 | 0.00 | 0.41 | 0.41 | 93 | 1012.6 |
| 20260903234548 | 72 | 46 | 0.0 | 2.0 | 0.00 | 0.41 | 0.41 | 93 | 1012.5 |
| 20260903234039 | 72 | 340 | 1.0 | 2.0 | 0.00 | 0.41 | 0.41 | 93 | 1012.3 |
| 20260903233552 | 72 | 1 | 1.0 | 2.0 | 0.00 | 0.41 | 0.41 | 93 | 1012.3 |
| 20260903233049 | 72 | 63 | 1.0 | 3.0 | 0.00 | 0.41 | 0.41 | 93 | 1012.4 |
| 20260903232531 | 72 | 46 | 1.0 | 3.0 | 0.00 | 0.41 | 0.41 | 93 | 1012.3 |
| 20260903232043 | 72 | 105 | 1.0 | 3.0 | 0.00 | 0.41 | 0.41 | 93 | 1012.3 |
| 20260903231532 | 72 | 46 | 0.0 | 3.0 | 0.00 | 0.41 | 0.41 | 93 | 1012.3 |
| 20260903230535 | 72 | 46 | 0.0 | 4.0 | 0.00 | 0.41 | 0.41 | 93 | 1012.0 |
| 20260903230053 | 72 | 46 | 0.0 | 6.0 | 0.00 | 0.41 | 0.41 | 93 | 1011.9 |
| 20260903225559 | 72 | 98 | 2.0 | 6.0 | 0.00 | 0.41 | 0.41 | 93 | 1011.7 |
| 20260903225038 | 72 | 103 | 3.0 | 8.0 | 0.00 | 0.41 | 0.41 | 93 | 1011.7 |
| 20260903224529 | 72 | 108 | 4.0 | 9.0 | 0.00 | 0.41 | 0.41 | 93 | 1011.8 |
| 20260903224036 | 72 | 105 | 5.0 | 10.0 | 0.00 | 0.41 | 0.41 | 93 | 1011.8 |
| 20260903223528 | 72 | 105 | 7.0 | 10.0 | 0.00 | 0.41 | 0.41 | 93 | 1011.9 |
| 20260903223024 | 71 | 115 | 7.0 | 10.0 | 0.00 | 0.41 | 0.41 | 93 | 1011.9 |
| 20260903222536 | 71 | 107 | 8.0 | 11.0 | 0.00 | 0.41 | 0.41 | 93 | 1011.8 |
| 20260903222031 | 71 | 110 | 9.0 | 11.0 | 0.00 | 0.41 | 0.41 | 93 | 1011.7 |
| 20260903221540 | 71 | 120 | 7.0 | 10.0 | 0.00 | 0.41 | 0.41 | 93 | 1011.9 |
| 20260903221028 | 71 | 115 | 9.0 | 10.0 | 0.00 | 0.41 | 0.41 | 93 | 1011.7 |
| 20260903220535 | 71 | 124 | 8.0 | 9.0 | 0.00 | 0.41 | 0.41 | 93 | 1011.7 |
| 20260903220028 | 71 | 127 | 7.0 | 9.0 | 0.00 | 0.41 | 0.41 | 94 | 1011.7 |
| 20260903215533 | 70 | 107 | 7.0 | 9.0 | 0.00 | 0.41 | 0.41 | 94 | 1011.8 |
| 20260903215025 | 70 | 113 | 7.0 | 8.0 | 0.00 | 0.41 | 0.41 | 94 | 1011.8 |
| 20260903214531 | 70 | 117 | 5.0 | 9.0 | 0.00 | 0.41 | 0.41 | 94 | 1011.8 |
| 20260903214024 | 70 | 100 | 5.0 | 9.0 | 0.00 | 0.41 | 0.41 | 94 | 1011.8 |
| 20260903213531 | 69 | 117 | 2.0 | 9.0 | 0.00 | 0.41 | 0.41 | 94 | 1011.9 |
| 20260903212534 | 69 | 86 | 4.0 | 9.0 | 0.00 | 0.41 | 0.41 | 93 | 1011.8 |
| 20260903212024 | 69 | 68 | 2.0 | 10.0 | 0.00 | 0.41 | 0.41 | 93 | 1011.6 |
| 20260903211532 | 69 | 46 | 2.0 | 12.0 | 0.00 | 0.41 | 0.41 | 93 | 1011.4 |
| 20260903211035 | 69 | 101 | 5.0 | 12.0 | 0.00 | 0.41 | 0.41 | 93 | 1011.1 |
| 20260903210523 | 69 | 84 | 5.0 | 10.0 | 0.01 | 0.41 | 0.41 | 93 | 1011.4 |
| 20260903210035 | 69 | 84 | 8.0 | 10.0 | 0.01 | 0.41 | 0.41 | 93 | 1011.7 |
| 20260903205525 | 69 | 86 | 2.0 | 6.0 | 0.02 | 0.41 | 0.41 | 93 | 1012.5 |
| 20260903205034 | 70 | 89 | 1.0 | 9.0 | 0.03 | 0.41 | 0.41 | 94 | 1012.5 |
| 20260903204539 | 70 | 46 | 1.0 | 18.0 | 0.03 | 0.41 | 0.41 | 93 | 1012.6 |
| 20260903204054 | 70 | 86 | 13.0 | 18.0 | 0.04 | 0.41 | 0.41 | 94 | 1011.9 |
| 20260903203548 | 69 | 96 | 12.0 | 14.0 | 0.06 | 0.41 | 0.41 | 94 | 1012.1 |
| 20260903203040 | 69 | 89 | 7.0 | 12.0 | 0.08 | 0.41 | 0.41 | 94 | 1012.6 |
| 20260903202532 | 69 | 86 | 5.0 | 11.0 | 0.09 | 0.41 | 0.41 | 93 | 1012.9 |
| 20260903202043 | 69 | 1 | 2.0 | 9.0 | 0.11 | 0.41 | 0.41 | 93 | 1012.9 |
| 20260903201524 | 69 | 84 | 3.0 | 9.0 | 0.13 | 0.41 | 0.41 | 93 | 1012.8 |
| 20260903201039 | 69 | 56 | 1.0 | 5.0 | 0.14 | 0.40 | 0.40 | 93 | 1013.1 |
| 20260903200526 | 69 | 89 | 1.0 | 6.0 | 0.15 | 0.40 | 0.40 | 93 | 1013.3 |
| 20260903200035 | 69 | 46 | 2.0 | 6.0 | 0.15 | 0.39 | 0.39 | 93 | 1013.2 |
| 20260903195543 | 69 | 28 | 1.0 | 3.0 | 0.15 | 0.49 | 0.38 | 93 | 1013.0 |
| 20260903195100 | 69 | 72 | 1.0 | 2.0 | 0.16 | 0.49 | 0.38 | 93 | 1013.1 |
| 20260903194528 | 69 | 28 | 1.0 | 4.0 | 0.18 | 0.49 | 0.38 | 93 | 1013.2 |
| 20260903194036 | 69 | 46 | 1.0 | 4.0 | 0.18 | 0.47 | 0.36 | 93 | 1013.7 |
| 20260903193525 | 69 | 15 | 1.0 | 4.0 | 0.18 | 0.46 | 0.35 | 93 | 1014.1 |
| 20260903192534 | 70 | 28 | 2.0 | 10.0 | 0.24 | 0.43 | 0.32 | 92 | 1014.2 |
| 20260903192027 | 70 | 72 | 4.0 | 10.0 | 0.26 | 0.40 | 0.29 | 92 | 1014.3 |
| 20260903191601 | 70 | 353 | 2.0 | 7.0 | 0.28 | 0.39 | 0.28 | 92 | 1014.2 |
| 20260903191027 | 70 | 340 | 2.0 | 4.0 | 0.26 | 0.37 | 0.26 | 92 | 1013.8 |
| 20260903190601 | 70 | 15 | 2.0 | 3.0 | 0.25 | 0.36 | 0.25 | 92 | 1013.4 |
| 20260903190037 | 70 | 89 | 0.0 | 4.0 | 0.24 | 0.35 | 0.24 | 91 | 1013.1 |
| 20260903185539 | 70 | 46 | 2.0 | 4.0 | 0.23 | 0.34 | 0.23 | 91 | 1013.4 |
| 20260903185042 | 70 | 15 | 1.0 | 5.0 | 0.22 | 0.33 | 0.22 | 91 | 1013.9 |
| 20260903184554 | 71 | 331 | 1.0 | 4.0 | 0.19 | 0.30 | 0.19 | 91 | 1014.0 |
| 20260903184106 | 71 | 1 | 1.0 | 7.0 | 0.18 | 0.29 | 0.18 | 91 | 1014.0 |
| 20260903183522 | 71 | 89 | 1.0 | 6.0 | 0.17 | 0.28 | 0.17 | 91 | 1014.1 |
| 20260903183042 | 72 | 89 | 2.0 | 7.0 | 0.15 | 0.26 | 0.15 | 90 | 1013.8 |
| 20260903182530 | 72 | 349 | 2.0 | 8.0 | 0.07 | 0.18 | 0.07 | 90 | 1014.8 |
| 20260903182102 | 72 | 344 | 3.0 | 8.0 | 0.02 | 0.13 | 0.02 | 90 | 1014.5 |
| 20260903181529 | 72 | 1 | 2.0 | 6.0 | 0.00 | 0.11 | 0.00 | 90 | 1013.8 |
| 20260903181040 | 72 | 314 | 2.0 | 6.0 | 0.00 | 0.11 | 0.00 | 89 | 1013.1 |
| 20260903180553 | 73 | 40 | 2.0 | 8.0 | 0.00 | 0.11 | 0.00 | 90 | 1013.0 |
| 20260903180024 | 73 | 8 | 2.0 | 8.0 | 0.00 | 0.11 | 0.00 | 89 | 1012.9 |
| 20260903175535 | 73 | 340 | 2.0 | 7.0 | 0.00 | 0.11 | 0.00 | 89 | 1012.7 |
| 20260903175052 | 73 | 32 | 2.0 | 7.0 | 0.00 | 0.11 | 0.00 | 89 | 1012.4 |
| 20260903174602 | 73 | 28 | 2.0 | 6.0 | 0.00 | 0.11 | 0.00 | 88 | 1012.2 |
| 20260903174034 | 73 | 303 | 2.0 | 6.0 | 0.00 | 0.11 | 0.00 | 88 | 1012.0 |
| 20260903173543 | 74 | 18 | 2.0 | 6.0 | 0.00 | 0.11 | 0.00 | 87 | 1011.9 |
| 20260903173041 | 74 | 59 | 2.0 | 6.0 | 0.00 | 0.11 | 0.00 | 86 | 1012.1 |
| 20260903172554 | 74 | 37 | 2.0 | 5.0 | 0.00 | 0.11 | 0.00 | 85 | 1012.3 |
| 20260903172025 | 74 | 1 | 2.0 | 9.0 | 0.00 | 0.11 | 0.00 | 85 | 1012.8 |
| 20260903171613 | 74 | 42 | 2.0 | 9.0 | 0.00 | 0.11 | 0.00 | 85 | 1012.8 |
| 20260903171103 | 74 | 77 | 2.0 | 5.0 | 0.00 | 0.11 | 0.00 | 84 | 1012.4 |
| 20260903170529 | 74 | 28 | 2.0 | 6.0 | 0.00 | 0.11 | 0.00 | 84 | 1012.3 |
| 20260903170043 | 75 | 89 | 2.0 | 6.0 | 0.00 | 0.11 | 0.00 | 83 | 1012.4 |
| 20260903165557 | 75 | 28 | 2.0 | 5.0 | 0.00 | 0.11 | 0.00 | 83 | 1012.5 |
| 20260903165027 | 75 | 46 | 1.0 | 4.0 | 0.00 | 0.11 | 0.00 | 82 | 1012.8 |
| 20260903164533 | 75 | 56 | 1.0 | 4.0 | 0.00 | 0.11 | 0.00 | 81 | 1012.7 |
| 20260903164025 | 76 | 28 | 1.0 | 5.0 | 0.00 | 0.11 | 0.00 | 81 | 1012.8 |
| 20260903163535 | 76 | 32 | 1.0 | 6.0 | 0.00 | 0.11 | 0.00 | 81 | 1012.9 |
| 20260903163027 | 76 | 32 | 2.0 | 6.0 | 0.00 | 0.11 | 0.00 | 81 | 1012.8 |
| 20260903162533 | 76 | 269 | 2.0 | 4.0 | 0.00 | 0.11 | 0.00 | 80 | 1012.9 |
| 20260903162027 | 76 | 331 | 2.0 | 4.0 | 0.00 | 0.11 | 0.00 | 80 | 1013.0 |
| 20260903161534 | 76 | 89 | 2.0 | 4.0 | 0.00 | 0.11 | 0.00 | 80 | 1012.9 |
| 20260903161024 | 77 | 46 | 1.0 | 3.0 | 0.00 | 0.11 | 0.00 | 80 | 1012.9 |
| 20260903160532 | 77 | 20 | 1.0 | 2.0 | 0.00 | 0.11 | 0.00 | 80 | 1013.0 |
| 20260903160143 | 77 | 46 | 1.0 | 3.0 | 0.00 | 0.11 | 0.00 | 81 | 1012.9 |
| 20260903155538 | 77 | 179 | 1.0 | 3.0 | 0.00 | 0.11 | 0.00 | 81 | 1013.0 |
| 20260903155026 | 76 | 56 | 1.0 | 4.0 | 0.00 | 0.11 | 0.00 | 81 | 1013.1 |
| 20260903154534 | 76 | 89 | 2.0 | 4.0 | 0.00 | 0.11 | 0.00 | 81 | 1013.1 |
| 20260903154026 | 76 | 1 | 1.0 | 4.0 | 0.00 | 0.11 | 0.00 | 81 | 1013.2 |
| 20260903153532 | 76 | 1 | 1.0 | 4.0 | 0.00 | 0.11 | 0.00 | 81 | 1013.2 |
| 20260903153104 | 77 | 1 | 1.0 | 5.0 | 0.00 | 0.11 | 0.00 | 80 | 1013.2 |
| 20260903152530 | 77 | 46 | 1.0 | 5.0 | 0.00 | 0.11 | 0.00 | 81 | 1013.1 |
| 20260903152041 | 77 | 89 | 1.0 | 5.0 | 0.00 | 0.11 | 0.00 | 81 | 1013.1 |
| 20260903151610 | 76 | 1 | 2.0 | 5.0 | 0.00 | 0.11 | 0.00 | 81 | 1012.8 |
| 20260903151100 | 76 | 46 | 1.0 | 6.0 | 0.00 | 0.11 | 0.00 | 79 | 1012.8 |
| 20260903150527 | 76 | 28 | 1.0 | 4.0 | 0.00 | 0.11 | 0.00 | 80 | 1012.7 |
| 20260903145534 | 76 | 89 | 1.0 | 3.0 | 0.00 | 0.11 | 0.00 | 81 | 1012.5 |
| 20260903145028 | 76 | 28 | 1.0 | 3.0 | 0.00 | 0.11 | 0.00 | 81 | 1012.5 |
| 20260903144532 | 76 | 13 | 1.0 | 6.0 | 0.00 | 0.11 | 0.00 | 81 | 1012.5 |
| 20260903144042 | 75 | 35 | 2.0 | 6.0 | 0.00 | 0.11 | 0.00 | 81 | 1012.4 |
| 20260903143532 | 75 | 79 | 3.0 | 8.0 | 0.00 | 0.11 | 0.00 | 80 | 1012.4 |
| 20260903143039 | 75 | 70 | 3.0 | 8.0 | 0.00 | 0.11 | 0.00 | 80 | 1012.4 |
| 20260903142525 | 75 | 105 | 7.0 | 9.0 | 0.00 | 0.11 | 0.00 | 81 | 1012.4 |
| 20260903142040 | 75 | 124 | 6.0 | 9.0 | 0.00 | 0.11 | 0.00 | 81 | 1012.6 |
| 20260903141552 | 75 | 120 | 5.0 | 7.0 | 0.00 | 0.11 | 0.00 | 81 | 1012.6 |
| 20260903141037 | 75 | 110 | 3.0 | 7.0 | 0.00 | 0.11 | 0.00 | 81 | 1012.7 |
| 20260903140523 | 75 | 124 | 5.0 | 9.0 | 0.00 | 0.11 | 0.00 | 82 | 1012.6 |
| 20260903140036 | 74 | 110 | 7.0 | 9.0 | 0.00 | 0.11 | 0.00 | 82 | 1012.6 |
| 20260903135538 | 74 | 98 | 6.0 | 8.0 | 0.00 | 0.11 | 0.00 | 84 | 1012.6 |
| 20260903135117 | 74 | 113 | 5.0 | 8.0 | 0.00 | 0.11 | 0.00 | 84 | 1012.7 |
| 20260903134529 | 74 | 113 | 4.0 | 8.0 | 0.00 | 0.11 | 0.00 | 85 | 1012.8 |
| 20260903134101 | 74 | 101 | 6.0 | 8.0 | 0.00 | 0.11 | 0.00 | 85 | 1012.7 |
| 20260903133551 | 73 | 101 | 3.0 | 8.0 | 0.00 | 0.11 | 0.00 | 85 | 1012.6 |
| 20260903133029 | 73 | 101 | 4.0 | 8.0 | 0.00 | 0.11 | 0.00 | 84 | 1012.6 |
| 20260903132558 | 73 | 98 | 2.0 | 8.0 | 0.00 | 0.11 | 0.00 | 84 | 1012.7 |
| 20260903132028 | 73 | 340 | 2.0 | 9.0 | 0.00 | 0.11 | 0.00 | 84 | 1012.6 |
| 20260903131030 | 73 | 89 | 3.0 | 8.0 | 0.00 | 0.11 | 0.00 | 85 | 1012.7 |
| 20260903130538 | 73 | 115 | 4.0 | 9.0 | 0.00 | 0.11 | 0.00 | 85 | 1012.8 |
| 20260903130029 | 72 | 46 | 3.0 | 9.0 | 0.00 | 0.11 | 0.00 | 85 | 1012.9 |
| 20260903125533 | 72 | 117 | 1.0 | 6.0 | 0.00 | 0.11 | 0.00 | 87 | 1013.0 |
| 20260903125025 | 72 | 110 | 3.0 | 6.0 | 0.00 | 0.11 | 0.00 | 87 | 1012.9 |
| 20260903124534 | 72 | 1 | 1.0 | 6.0 | 0.00 | 0.11 | 0.00 | 87 | 1012.9 |
| 20260903124040 | 72 | 20 | 2.0 | 5.0 | 0.00 | 0.11 | 0.00 | 88 | 1013.0 |
| 20260903123531 | 72 | 314 | 1.0 | 5.0 | 0.00 | 0.11 | 0.00 | 90 | 1012.9 |
| 20260903123045 | 70 | 72 | 1.0 | 5.0 | 0.00 | 0.11 | 0.00 | 93 | 1012.9 |
| 20260903122532 | 69 | 89 | 2.0 | 5.0 | 0.00 | 0.11 | 0.00 | 94 | 1012.9 |
| 20260903122038 | 69 | 46 | 2.0 | 5.0 | 0.00 | 0.11 | 0.00 | 94 | 1012.8 |
| 20260903121528 | 69 | 63 | 1.0 | 4.0 | 0.00 | 0.11 | 0.00 | 94 | 1012.8 |
| 20260903121104 | 69 | 89 | 2.0 | 4.0 | 0.00 | 0.11 | 0.00 | 94 | 1012.8 |
| 20260903120533 | 69 | 114 | 1.0 | 4.0 | 0.00 | 0.11 | 0.00 | 94 | 1013.0 |
| 20260903120024 | 68 | 135 | 1.0 | 4.0 | 0.00 | 0.11 | 0.00 | 94 | 1012.9 |
| 20260903115535 | 68 | 127 | 1.0 | 3.0 | 0.00 | 0.11 | 0.00 | 94 | 1012.9 |
| 20260903115042 | 68 | 89 | 1.0 | 2.0 | 0.00 | 0.11 | 0.00 | 94 | 1012.9 |
| 20260903114551 | 68 | 89 | 1.0 | 2.0 | 0.00 | 0.11 | 0.00 | 95 | 1012.8 |
| 20260903114041 | 68 | 1 | 1.0 | 2.0 | 0.00 | 0.11 | 0.00 | 95 | 1012.9 |
| 20260903113527 | 68 | 89 | 1.0 | 2.0 | 0.00 | 0.11 | 0.00 | 95 | 1012.8 |
| 20260903113035 | 68 | 135 | 1.0 | 3.0 | 0.00 | 0.11 | 0.00 | 95 | 1012.8 |
| 20260903112541 | 69 | 89 | 1.0 | 3.0 | 0.00 | 0.11 | 0.00 | 95 | 1012.7 |
| 20260903112031 | 69 | 63 | 1.0 | 2.0 | 0.00 | 0.11 | 0.00 | 95 | 1012.7 |
| 20260903111526 | 69 | 46 | 1.0 | 4.0 | 0.00 | 0.11 | 0.00 | 95 | 1012.6 |
| 20260903111038 | 70 | 152 | 1.0 | 4.0 | 0.00 | 0.11 | 0.00 | 95 | 1012.5 |
| 20260903110527 | 70 | 46 | 1.0 | 4.0 | 0.00 | 0.11 | 0.00 | 95 | 1012.4 |
| 20260903110035 | 70 | 46 | 1.0 | 5.0 | 0.00 | 0.11 | 0.00 | 95 | 1012.3 |
| 20260903105524 | 70 | 1 | 1.0 | 5.0 | 0.00 | 0.11 | 0.00 | 95 | 1012.2 |
| 20260903105035 | 70 | 98 | 2.0 | 5.0 | 0.00 | 0.11 | 0.00 | 95 | 1012.3 |
| 20260903104548 | 70 | 89 | 2.0 | 4.0 | 0.00 | 0.11 | 0.00 | 95 | 1012.3 |
| 20260903104037 | 71 | 89 | 2.0 | 4.0 | 0.00 | 0.11 | 0.00 | 95 | 1012.3 |
| 20260903103524 | 71 | 72 | 0.0 | 3.0 | 0.00 | 0.11 | 0.00 | 95 | 1012.2 |
| 20260903103037 | 71 | 89 | 1.0 | 3.0 | 0.00 | 0.11 | 0.00 | 95 | 1012.2 |
| 20260903102534 | 71 | 63 | 0.0 | 2.0 | 0.00 | 0.11 | 0.00 | 95 | 1012.2 |
| 20260903102027 | 71 | 28 | 0.0 | 2.0 | 0.00 | 0.11 | 0.00 | 96 | 1012.1 |
| 20260903101536 | 71 | 117 | 0.0 | 3.0 | 0.00 | 0.11 | 0.00 | 96 | 1012.1 |
| 20260903101025 | 71 | 46 | 1.0 | 3.0 | 0.00 | 0.11 | 0.00 | 96 | 1012.1 |
| 20260903100533 | 71 | 89 | 0.0 | 1.0 | 0.00 | 0.11 | 0.00 | 95 | 1012.1 |
| 20260903100025 | 71 | 63 | 0.0 | 1.0 | 0.00 | 0.11 | 0.00 | 95 | 1012.0 |
| 20260903095535 | 71 | 63 | 0.0 | 1.0 | 0.00 | 0.11 | 0.00 | 95 | 1012.0 |
| 20260903095026 | 71 | 46 | 0.0 | 1.0 | 0.00 | 0.11 | 0.00 | 95 | 1012.1 |
| 20260903094533 | 71 | 135 | 0.0 | 1.0 | 0.00 | 0.11 | 0.00 | 95 | 1012.0 |
| 20260903094023 | 71 | 89 | 0.0 | 2.0 | 0.00 | 0.11 | 0.00 | 95 | 1012.0 |
| 20260903093532 | 71 | 105 | 0.0 | 2.0 | 0.00 | 0.11 | 0.00 | 95 | 1012.0 |
| 20260903093040 | 72 | 89 | 0.0 | 1.0 | 0.00 | 0.11 | 0.00 | 95 | 1012.1 |
| 20260903092552 | 72 | 135 | 0.0 | 1.0 | 0.00 | 0.11 | 0.00 | 95 | 1012.0 |
| 20260903092024 | 72 | 1 | 0.0 | 2.0 | 0.00 | 0.11 | 0.00 | 95 | 1012.0 |
| 20260903091538 | 72 | 108 | 1.0 | 3.0 | 0.00 | 0.11 | 0.00 | 95 | 1012.0 |
| 20260903091028 | 72 | 63 | 1.0 | 3.0 | 0.00 | 0.11 | 0.00 | 95 | 1012.0 |
| 20260903090537 | 72 | 46 | 1.0 | 2.0 | 0.00 | 0.11 | 0.00 | 95 | 1011.9 |
| 20260903090050 | 72 | 76 | 1.0 | 3.0 | 0.00 | 0.11 | 0.00 | 95 | 1011.9 |
| 20260903085536 | 72 | 89 | 0.0 | 5.0 | 0.00 | 0.11 | 0.00 | 95 | 1011.8 |
| 20260903085047 | 72 | 79 | 1.0 | 4.0 | 0.00 | 0.11 | 0.00 | 95 | 1011.8 |
| 20260903084615 | 72 | 135 | 0.0 | 3.0 | 0.00 | 0.11 | 0.00 | 95 | 1011.8 |
| 20260903084058 | 72 | 81 | 1.0 | 3.0 | 0.00 | 0.11 | 0.00 | 95 | 1011.9 |
| 20260903083526 | 72 | 108 | 0.0 | 4.0 | 0.00 | 0.11 | 0.00 | 95 | 1011.8 |
| 20260903083034 | 72 | 89 | 1.0 | 3.0 | 0.00 | 0.11 | 0.00 | 95 | 1011.8 |
| 20260903082524 | 73 | 89 | 0.0 | 3.0 | 0.00 | 0.11 | 0.00 | 95 | 1011.8 |
| 20260903082036 | 73 | 1 | 1.0 | 2.0 | 0.00 | 0.11 | 0.00 | 95 | 1011.7 |
| 20260903081523 | 73 | 46 | 0.0 | 2.0 | 0.00 | 0.11 | 0.00 | 95 | 1011.7 |
| 20260903081036 | 73 | 20 | 0.0 | 3.0 | 0.00 | 0.11 | 0.00 | 95 | 1011.7 |
| 20260903080524 | 73 | 20 | 1.0 | 4.0 | 0.00 | 0.11 | 0.00 | 95 | 1011.7 |
| 20260903080034 | 73 | 32 | 1.0 | 4.0 | 0.00 | 0.11 | 0.00 | 95 | 1011.6 |
| 20260903075539 | 73 | 1 | 1.0 | 3.0 | 0.00 | 0.11 | 0.00 | 95 | 1011.6 |
| 20260903075029 | 73 | 15 | 1.0 | 3.0 | 0.00 | 0.11 | 0.00 | 95 | 1011.6 |
| 20260903074537 | 73 | 28 | 1.0 | 3.0 | 0.00 | 0.11 | 0.00 | 95 | 1011.5 |
| 20260903074029 | 73 | 89 | 1.0 | 3.0 | 0.00 | 0.11 | 0.00 | 95 | 1011.5 |
| 20260903073537 | 73 | 46 | 1.0 | 3.0 | 0.00 | 0.11 | 0.00 | 95 | 1011.5 |
| 20260903073030 | 73 | 1 | 1.0 | 3.0 | 0.00 | 0.11 | 0.00 | 95 | 1011.6 |
| 20260903072539 | 73 | 46 | 1.0 | 3.0 | 0.00 | 0.11 | 0.00 | 95 | 1011.6 |
| 20260903072052 | 73 | 63 | 1.0 | 2.0 | 0.00 | 0.11 | 0.00 | 95 | 1011.6 |
| 20260903071539 | 73 | 28 | 1.0 | 3.0 | 0.00 | 0.11 | 0.00 | 95 | 1011.6 |
| 20260903071032 | 73 | 89 | 1.0 | 3.0 | 0.00 | 0.11 | 0.00 | 95 | 1011.6 |
| 20260903070538 | 73 | 46 | 1.0 | 3.0 | 0.00 | 0.11 | 0.00 | 94 | 1011.6 |
| 20260903070046 | 73 | 135 | 0.0 | 3.0 | 0.00 | 0.11 | 0.00 | 94 | 1011.6 |
| 20260903065534 | 73 | 46 | 1.0 | 3.0 | 0.00 | 0.11 | 0.00 | 94 | 1011.6 |
| 20260903065043 | 73 | 46 | 1.0 | 3.0 | 0.00 | 0.11 | 0.00 | 94 | 1011.7 |
| 20260903064041 | 73 | 1 | 0.0 | 2.0 | 0.00 | 0.11 | 0.00 | 94 | 1011.7 |
| 20260903063529 | 73 | 1 | 0.0 | 2.0 | 0.00 | 0.11 | 0.00 | 94 | 1011.7 |
| 20260903063038 | 73 | 1 | 1.0 | 2.0 | 0.00 | 0.11 | 0.00 | 94 | 1011.7 |
| 20260903062545 | 73 | 28 | 1.0 | 2.0 | 0.00 | 0.11 | 0.00 | 94 | 1011.9 |
| 20260903062036 | 74 | 46 | 0.0 | 1.0 | 0.00 | 0.11 | 0.00 | 94 | 1011.8 |
| 20260903061540 | 74 | 89 | 0.0 | 1.0 | 0.00 | 0.11 | 0.00 | 94 | 1011.8 |
| 20260903061040 | 74 | 46 | 0.0 | 1.0 | 0.00 | 0.11 | 0.00 | 94 | 1011.8 |
| 20260903060553 | 74 | 135 | 0.0 | 1.0 | 0.00 | 0.11 | 0.00 | 94 | 1011.8 |
| 20260903060039 | 74 | 1 | 0.0 | 2.0 | 0.00 | 0.11 | 0.00 | 94 | 1011.8 |
| 20260903055613 | 74 | 1 | 1.0 | 2.0 | 0.00 | 0.11 | 0.00 | 94 | 1011.8 |
| 20260903055030 | 74 | 89 | 0.0 | 2.0 | 0.00 | 0.11 | 0.00 | 94 | 1011.8 |
| 20260903054535 | 74 | 89 | 0.0 | 1.0 | 0.00 | 0.11 | 0.00 | 94 | 1011.8 |
| 20260903054029 | 74 | 1 | 0.0 | 1.0 | 0.00 | 0.11 | 0.00 | 94 | 1011.7 |
| 20260903053538 | 74 | 89 | 0.0 | 1.0 | 0.00 | 0.11 | 0.00 | 94 | 1011.7 |
| 20260903053024 | 74 | 135 | 0.0 | 1.0 | 0.00 | 0.11 | 0.00 | 94 | 1011.7 |
| 20260903052600 | 74 | 135 | 0.0 | 1.0 | 0.00 | 0.11 | 0.00 | 94 | 1011.7 |
| 20260903052029 | 74 | 89 | 0.0 | 2.0 | 0.00 | 0.11 | 0.00 | 94 | 1011.5 |
| 20260903051538 | 74 | 46 | 0.0 | 1.0 | 0.00 | 0.11 | 0.00 | 94 | 1011.4 |
| 20260903051024 | 74 | 89 | 0.0 | 1.0 | 0.00 | 0.11 | 0.00 | 94 | 1011.4 |
| 20260903050532 | 74 | 63 | 0.0 | 1.0 | 0.00 | 0.11 | 0.00 | 94 | 1011.4 |
| 20260903050034 | 74 | 46 | 0.0 | 1.0 | 0.00 | 0.11 | 0.00 | 94 | 1011.5 |
| 20260903045538 | 74 | 89 | 0.0 | 1.0 | 0.00 | 0.11 | 0.00 | 94 | 1011.3 |
| 20260903045029 | 74 | 46 | 0.0 | 2.0 | 0.00 | 0.11 | 0.00 | 94 | 1011.3 |
| 20260903044539 | 74 | 46 | 1.0 | 2.0 | 0.00 | 0.11 | 0.00 | 94 | 1011.2 |
| 20260903044027 | 75 | 135 | 0.0 | 1.0 | 0.00 | 0.11 | 0.00 | 94 | 1011.1 |
| 20260903043600 | 75 | 179 | 0.0 | 1.0 | 0.00 | 0.11 | 0.00 | 93 | 1011.0 |
| 20260903043032 | 75 | 89 | 1.0 | 2.0 | 0.00 | 0.11 | 0.00 | 93 | 1011.0 |
| 20260903042539 | 75 | 89 | 0.0 | 3.0 | 0.00 | 0.11 | 0.00 | 93 | 1011.0 |
| 20260903042050 | 75 | 1 | 1.0 | 3.0 | 0.00 | 0.11 | 0.00 | 93 | 1010.9 |
| 20260903041535 | 75 | 28 | 0.0 | 1.0 | 0.00 | 0.11 | 0.00 | 93 | 1010.8 |
| 20260903041028 | 75 | 135 | 0.0 | 1.0 | 0.00 | 0.11 | 0.00 | 93 | 1010.7 |
| 20260903040534 | 75 | 340 | 0.0 | 1.0 | 0.00 | 0.11 | 0.00 | 93 | 1010.6 |
| 20260903040048 | 75 | 89 | 0.0 | 2.0 | 0.00 | 0.11 | 0.00 | 93 | 1010.4 |
| 20260903035528 | 75 | 1 | 0.0 | 3.0 | 0.00 | 0.11 | 0.11 | 93 | 1010.4 |
| 20260903035037 | 75 | 46 | 1.0 | 2.0 | 0.00 | 0.11 | 0.11 | 93 | 1010.3 |
| 20260903034527 | 75 | 324 | 1.0 | 2.0 | 0.00 | 0.11 | 0.11 | 93 | 1010.2 |
| 20260903034040 | 75 | 331 | 1.0 | 2.0 | 0.00 | 0.11 | 0.11 | 93 | 1010.3 |
| 20260903033530 | 75 | 340 | 1.0 | 2.0 | 0.00 | 0.11 | 0.11 | 93 | 1010.3 |
| 20260903033052 | 75 | 269 | 0.0 | 2.0 | 0.00 | 0.11 | 0.11 | 93 | 1010.3 |
| 20260903032521 | 75 | 331 | 0.0 | 2.0 | 0.00 | 0.11 | 0.11 | 93 | 1010.3 |
| 20260903032042 | 76 | 269 | 1.0 | 4.0 | 0.00 | 0.11 | 0.11 | 93 | 1010.2 |
| 20260903031535 | 76 | 295 | 2.0 | 4.0 | 0.00 | 0.11 | 0.11 | 93 | 1010.2 |
| 20260903031026 | 76 | 269 | 2.0 | 4.0 | 0.00 | 0.11 | 0.11 | 93 | 1010.2 |
| 20260903030533 | 76 | 232 | 3.0 | 4.0 | 0.00 | 0.11 | 0.11 | 93 | 1010.3 |
| 20260903030026 | 76 | 236 | 2.0 | 3.0 | 0.00 | 0.11 | 0.11 | 93 | 1010.5 |
| 20260903025532 | 76 | 237 | 3.0 | 3.0 | 0.00 | 0.11 | 0.11 | 93 | 1010.5 |
| 20260903025025 | 76 | 241 | 2.0 | 5.0 | 0.00 | 0.11 | 0.11 | 93 | 1010.6 |
| 20260903024533 | 76 | 241 | 3.0 | 5.0 | 0.00 | 0.11 | 0.11 | 93 | 1010.7 |
| 20260903024024 | 76 | 250 | 3.0 | 3.0 | 0.00 | 0.11 | 0.11 | 93 | 1010.8 |
| 20260903023531 | 76 | 250 | 2.0 | 3.0 | 0.00 | 0.11 | 0.11 | 93 | 1010.9 |
| 20260903023023 | 76 | 216 | 2.0 | 3.0 | 0.00 | 0.11 | 0.11 | 93 | 1010.9 |
| 20260903022529 | 76 | 229 | 2.0 | 3.0 | 0.00 | 0.11 | 0.11 | 93 | 1011.0 |
| 20260903022039 | 76 | 223 | 2.0 | 3.0 | 0.00 | 0.11 | 0.11 | 93 | 1010.9 |
| 20260903021528 | 76 | 197 | 1.0 | 4.0 | 0.00 | 0.11 | 0.11 | 93 | 1010.9 |
| 20260903021039 | 76 | 218 | 2.0 | 4.0 | 0.00 | 0.11 | 0.11 | 93 | 1010.9 |
| 20260903020528 | 76 | 250 | 2.0 | 3.0 | 0.00 | 0.11 | 0.11 | 93 | 1010.9 |
| 20260903020036 | 76 | 241 | 1.0 | 3.0 | 0.00 | 0.11 | 0.11 | 93 | 1010.8 |
| 20260903015524 | 76 | 161 | 2.0 | 3.0 | 0.00 | 0.11 | 0.11 | 93 | 1010.8 |
| 20260903015039 | 76 | 152 | 2.0 | 3.0 | 0.00 | 0.11 | 0.11 | 93 | 1010.8 |
| 20260903014530 | 76 | 190 | 2.0 | 3.0 | 0.00 | 0.11 | 0.11 | 93 | 1010.7 |
| 20260903014041 | 76 | 157 | 1.0 | 3.0 | 0.00 | 0.11 | 0.11 | 93 | 1010.8 |
| 20260903013529 | 76 | 161 | 1.0 | 4.0 | 0.00 | 0.11 | 0.11 | 93 | 1010.7 |
| 20260903013042 | 76 | 138 | 2.0 | 4.0 | 0.00 | 0.11 | 0.11 | 93 | 1010.8 |
| 20260903012522 | 76 | 148 | 2.0 | 3.0 | 0.00 | 0.11 | 0.11 | 93 | 1010.8 |
| 20260903012029 | 76 | 179 | 2.0 | 4.0 | 0.00 | 0.11 | 0.11 | 93 | 1010.8 |
| 20260903011537 | 76 | 152 | 3.0 | 4.0 | 0.00 | 0.11 | 0.11 | 93 | 1010.8 |
| 20260903011102 | 76 | 144 | 3.0 | 5.0 | 0.00 | 0.11 | 0.11 | 93 | 1010.6 |
| 20260903010034 | 76 | 137 | 3.0 | 6.0 | 0.00 | 0.11 | 0.11 | 93 | 1010.6 |
| 20260903005550 | 77 | 136 | 5.0 | 7.0 | 0.00 | 0.11 | 0.11 | 93 | 1010.5 |
| 20260903005038 | 77 | 140 | 5.0 | 7.0 | 0.00 | 0.11 | 0.11 | 93 | 1010.5 |
| 20260903004528 | 77 | 122 | 5.0 | 6.0 | 0.00 | 0.11 | 0.11 | 93 | 1010.5 |
| 20260903004039 | 77 | 139 | 4.0 | 5.0 | 0.00 | 0.11 | 0.11 | 92 | 1010.5 |
| 20260903003527 | 77 | 148 | 3.0 | 4.0 | 0.00 | 0.11 | 0.11 | 92 | 1010.4 |